Regional Weather Roundup
Issued by NWS State College, PA

Home | Current Version | Previous Version | Graphics & Text | Print | Product List | Glossary On
Versions: 1 2 3 4 5 6 7 8 9 10 11 12 13 14 15 16 17 18 19 20 21 22 23 24 25 26 27 28 29 30 31 32 33 34 35 36 37 38 39 40 41 42 43 44 45 46 47 48 49 50
000
ASUS41 KCTP 280103
RWRCTP

REGIONAL WEATHER ROUNDUP
NATIONAL WEATHER SERVICE STATE COLLEGE PA
900 PM EDT MON MAR 27 2017

Note: "fair" indicates few or no clouds below 12,000 feet with no
significant weather and/or obstructions to visibility.

* = STATION THAT DOES NOT REPORT PRECIPITATION /E.G. RAIN...SNOW...ETC/
    THUNDER OR FOG.

PAZ002>004-007>009-013>016-020>023-029>032-280200-
WESTERN PENNSYLVANIA

CITY           SKY/WX    TMP DP  RH WIND       PRES   REMARKS
ERIE           PTCLDY    50  45  83 S3        29.92S
MEADVILLE      CLOUDY    54  44  69 N3        29.91R
FRANKLIN*      CLOUDY    54  43  66 CALM      29.93R
NEW CASTLE     FAIR      55  47  74 CALM      29.91S
BEAVER COUNTY  CLEAR     61  46  59 CALM      29.91R
BUTLER*        PTCLDY    57  46  67 CALM      29.92R
PITTSBURGH INT CLOUDY    63  49  60 SW3       29.90R
PITTSBURGH     CLOUDY    64  47  53 SW5       29.90R
INDIANA*       PTCLDY    57  50  77 CALM      29.94R
LATROBE        CLEAR     59  50  72 S3        29.92R
WASHINGTON CO* CLOUDY    57  48  72 CALM      29.92S
$$

PAZ004>006-010>012-017>019-024>028-033>037-041-042-045-046-049>053-280200-
CENTRAL PENNSYLVANIA

CITY           SKY/WX    TMP DP  RH WIND       PRES   REMARKS
BRADFORD       CLOUDY    52  47  83 CALM      29.92S
DUBOIS         PTCLDY    56  44  64 CALM      29.91S
CLEARFIELD       N/A    N/A N/A N/A MISG      29.92S
JOHNSTOWN      CLOUDY    59  47  64 SW5       29.93S
ALTOONA        CLEAR     62  49  62 S3        29.93R
STATE COLLEGE  MOCLDY    61  46  59 CALM      29.92R
WILLIAMSPORT   PTCLDY    51  47  86 CALM      29.94R
SELINSGROVE    MOCLDY    50  48  93 CALM      29.94S
FT INDIANTOWN  MOCLDY    49  49 100 CALM      29.95S
CAPITAL CITY   PTCLDY    55  49  80 SE5       29.95S
HARRISBURG     MOCLDY    52  50  93 CALM      29.95R
YORK           CLOUDY    53  52  96 CALM      29.94R
$$

PAZ038>040-043-044-047-048-054-055-060>062-067>071-280200-
EASTERN PENNSYLVANIA

CITY           SKY/WX    TMP DP  RH WIND       PRES   REMARKS
SCRANTON       CLOUDY    50  46  86 E7        29.95R
MOUNT POCONO   CLOUDY    41  41 100 CALM      29.97R FOG
ALLENTOWN      PTCLDY    48  45  89 CALM      29.98R
QUAKERTOWN*    CLEAR     46  46 100 CALM      29.99R
READING        CLEAR     51  50  96 N3        29.96R
LANCASTER      CLOUDY    53  52  96 E5        29.95R
COATESVILLE    PTCLDY    55  54  94 E6        29.98R
POTTSTOWN      CLEAR     50  48  93 NE5       29.98R
BLUE BELL      CLEAR     46  46 100 CALM      29.97R
DOYLESTOWN     CLEAR     49  49 100 CALM      29.97S
WILLOW GROVE   NOT AVBL
NORTH PHILA    CLEAR     51  49  92 NE3       29.99R FOG
PHILADELPHIA   PTCLDY    54  51  90 CALM      29.97R
$$




USA.gov is the U.S. government's official web portal to all federal, state and local government web resources and services.